Weather History for Birmingham, United Kingdom

Change the Weather History Date:

Tuesday, January 8, 2013

  Actual Average Record
Temperature  
Mean Temperature 48 °F -  
Max Temperature 51 °F 43 °F 53 °F (1998)
Min Temperature 46 °F 33 °F 21 °F (2003)
Degree Days  
Heating Degree Days 16    
Moisture  
Dew Point 46 °F    
Average Humidity 92    
Maximum Humidity 100    
Minimum Humidity 87    
Precipitation  
Precipitation 0.00 in 0.07 in - ()
Sea Level Pressure  
Sea Level Pressure 30.17 in    
Wind  
Wind Speed 6 mph ()    
Max Wind Speed 9 mph    
Max Gust Speed -    
Visibility 5.2 miles    
Events Rain    
Averages and records for this station are not official NWS values.
T = Trace of Precipitation, MM = Missing Value Source: Averaged Metar Reports

Daily Weather History Graph

Daily Weather History Graph

Search for Another Location

Airport:

Trip Planner

Search our weather history database for the weather conditions in past years. The results will help you decide how hot, cold, wet, or windy it might be!

Date:

Astronomy

Jan. 08, 2013 Rise Set
Actual Time 8:15 AM GMT 4:12 PM GMT
Civil Twilight 7:34 AM GMT 4:53 PM GMT
Nautical Twilight 6:51 AM GMT 5:36 PM GMT
Astronomical Twilight 6:09 AM GMT 6:18 PM GMT
Moon 4:27 AM GMT (1/8) 1:04 PM GMT (1/8)
Length of Visible Light 9h 18m
Length of Day
7h 57m
Waning Crescent, 15% of the Moon is Illuminated
Jan 8
Waning Crescent
Jan 11
New
Jan 18
First Quarter
Jan 27
Full
Feb 3
Last Quarter

Hourly Weather History & Observations

Time (GMT) Temp. Windchill Dew Point Humidity Pressure Visibility Wind Dir Wind Speed Gust Speed Precip Events Conditions
12:20 AM 46.4 °F 43.5 °F 42.8 °F 87% 30.18 in 6.2 mi SSW 5.8 mph - N/A   Partly Cloudy
12:50 AM 46.4 °F 43.5 °F 44.6 °F 93% 30.18 in 6.2 mi SW 5.8 mph - N/A   Mostly Cloudy
1:20 AM 46.4 °F 43.5 °F 44.6 °F 93% 30.18 in 6.2 mi SSW 5.8 mph - N/A   Scattered Clouds
1:50 AM 46.4 °F 43.5 °F 44.6 °F 93% 30.18 in 6.2 mi SW 5.8 mph - N/A   Mostly Cloudy
2:20 AM 46.4 °F 43.5 °F 44.6 °F 93% 30.18 in 6.2 mi SSW 5.8 mph - N/A   Overcast
2:50 AM 46.4 °F 44.3 °F 44.6 °F 93% 30.18 in 6.2 mi SSW 4.6 mph - N/A   Mostly Cloudy
3:20 AM 48.2 °F - 44.6 °F 87% 30.18 in 6.2 mi Variable 3.5 mph - N/A   Mostly Cloudy
3:50 AM 48.2 °F - 44.6 °F 87% 30.18 in 6.2 mi SW 5.8 mph - N/A   Mostly Cloudy
4:20 AM 48.2 °F - 44.6 °F 87% 30.15 in 6.2 mi SW 4.6 mph - N/A   Mostly Cloudy
4:50 AM 46.4 °F 43.5 °F 44.6 °F 93% 30.15 in 5.6 mi SW 5.8 mph - N/A   Scattered Clouds
5:20 AM 46.4 °F 43.5 °F 44.6 °F 93% 30.15 in 5.6 mi SW 5.8 mph - N/A   Mostly Cloudy
5:50 AM 46.4 °F 43.5 °F 44.6 °F 93% 30.18 in 5.0 mi SW 5.8 mph - N/A   Overcast
6:20 AM 48.2 °F - 44.6 °F 87% 30.18 in 5.6 mi SSW 6.9 mph - N/A   Mostly Cloudy
6:50 AM 48.2 °F - 44.6 °F 87% 30.15 in 5.6 mi SSW 5.8 mph - N/A   Mostly Cloudy
7:20 AM 48.2 °F - 44.6 °F 87% 30.15 in 5.6 mi SSW 6.9 mph - N/A   Overcast
7:50 AM 48.2 °F - 46.4 °F 93% 30.18 in 5.6 mi SW 8.1 mph - N/A   Overcast
8:20 AM 48.2 °F - 46.4 °F 93% 30.18 in 4.3 mi SW 8.1 mph - N/A   Mostly Cloudy
8:50 AM 48.2 °F - 46.4 °F 93% 30.18 in 5.0 mi SW 6.9 mph - N/A   Overcast
9:20 AM 48.2 °F - 46.4 °F 93% 30.18 in 5.6 mi SSW 8.1 mph - N/A   Overcast
9:50 AM 50.0 °F - 46.4 °F 87% 30.18 in 6.2 mi SSW 8.1 mph - N/A   Overcast
10:20 AM 50.0 °F - 46.4 °F 87% 30.18 in 6.2 mi SSW 6.9 mph - N/A   Mostly Cloudy
10:50 AM 50.0 °F - 46.4 °F 87% 30.18 in 6.2 mi SSW 6.9 mph - N/A   Mostly Cloudy
11:20 AM 50.0 °F - 46.4 °F 87% 30.18 in 6.2 mi SSW 5.8 mph - N/A   Mostly Cloudy
11:50 AM 50.0 °F - 46.4 °F 87% 30.18 in 6.2 mi SW 5.8 mph - N/A   Mostly Cloudy
12:20 PM 50.0 °F - 46.4 °F 87% 30.18 in 6.2 mi SSW 5.8 mph - N/A   Mostly Cloudy
12:50 PM 50.0 °F - 46.4 °F 87% 30.18 in 6.2 mi SSW 5.8 mph - N/A   Mostly Cloudy
1:20 PM 51.8 °F - 48.2 °F 88% 30.18 in 6.2 mi SSW 8.1 mph - N/A   Mostly Cloudy
1:50 PM 51.8 °F - 48.2 °F 88% 30.15 in 6.2 mi SSW 6.9 mph - N/A   Mostly Cloudy
2:20 PM 50.0 °F - 48.2 °F 94% 30.15 in 6.2 mi SSW 6.9 mph - N/A   Mostly Cloudy
2:50 PM 51.8 °F - 48.2 °F 88% 30.15 in 6.2 mi SW 6.9 mph - N/A   Mostly Cloudy
3:20 PM 50.0 °F - 48.2 °F 94% 30.15 in 6.2 mi SW 6.9 mph - N/A Rain Light Rain
3:50 PM 50.0 °F - 48.2 °F 94% 30.18 in 5.6 mi SSW 5.8 mph - N/A   Light Drizzle
4:20 PM 50.0 °F - 48.2 °F 94% 30.18 in 4.3 mi SSW 5.8 mph - N/A Rain Light Rain
4:50 PM 50.0 °F - 48.2 °F 94% 30.18 in 3.7 mi SSW 4.6 mph - N/A Rain Light Rain
5:20 PM 50.0 °F - 48.2 °F 94% 30.18 in 3.7 mi SW 4.6 mph - N/A Rain Light Rain
5:50 PM 50.0 °F - 50.0 °F 100% 30.18 in - SW 4.6 mph - N/A Rain Rain
6:20 PM 50.0 °F - 50.0 °F 100% 30.15 in 3.1 mi SW 5.8 mph - N/A Rain Light Rain
6:50 PM 50.0 °F - 50.0 °F 100% 30.15 in 3.1 mi SW 5.8 mph - N/A   Light Drizzle
7:20 PM 50.0 °F - 50.0 °F 100% 30.15 in - SW 5.8 mph - N/A   Light Drizzle
7:50 PM 50.0 °F - 50.0 °F 100% 30.15 in - SW 4.6 mph - N/A   Light Drizzle
8:20 PM 50.0 °F - 50.0 °F 100% 30.15 in 1.4 mi WNW 4.6 mph - N/A   Mostly Cloudy
8:50 PM 48.2 °F - 46.4 °F 93% 30.18 in 3.1 mi NNW 9.2 mph - N/A   Light Drizzle
9:20 PM 48.2 °F - 46.4 °F 93% 30.18 in 3.1 mi NW 4.6 mph - N/A Rain Light Rain
9:50 PM 48.2 °F - 46.4 °F 93% 30.18 in - NW 6.9 mph - N/A   Mostly Cloudy
10:20 PM 46.4 °F 42.4 °F 46.4 °F 100% 30.18 in 3.1 mi NNW 8.1 mph - N/A   Mostly Cloudy
10:50 PM 46.4 °F 42.9 °F 44.6 °F 93% 30.18 in 3.1 mi NNW 6.9 mph - N/A Rain Light Rain
11:20 PM 46.4 °F 44.3 °F 44.6 °F 93% 30.18 in 3.7 mi NW 4.6 mph - N/A Rain Light Rain
11:50 PM 46.4 °F 42.9 °F 44.6 °F 93% 30.18 in 5.6 mi NW 6.9 mph - N/A   Light Drizzle